Time,TemperatureF,DewpointF,PressureIn,WindDirection,WindDirectionDegrees,WindSpeedMPH,WindSpeedGustMPH,Humidity,HourlyPrecipIn,Conditions,Clouds,dailyrainin,SolarRadiationWatts/m^2,SoftwareType,DateUTC
2013-06-08 00:01:00,59.0,59.0,-100.00,NNE,18,8.0,12.0,100,0.00,,,0.22,0.000000,,2013-06-08 04:01:00,
2013-06-08 00:03:00,59.0,59.0,-100.00,NNE,18,8.0,12.0,100,0.00,,,0.22,0.000000,,2013-06-08 04:03:00,
2013-06-08 00:33:00,58.0,58.0,-100.00,NNE,27,11.0,16.0,100,0.00,,,0.21,0.000000,,2013-06-08 04:33:00,
2013-06-08 00:42:00,58.0,58.0,-100.00,NNE,27,11.0,16.0,100,0.00,,,0.21,0.000000,,2013-06-08 04:42:00,
2013-06-08 00:53:00,58.0,58.0,-100.00,NNE,27,11.0,16.0,100,0.00,,,0.21,0.000000,,2013-06-08 04:53:00,
2013-06-08 01:02:00,58.0,58.0,-100.00,NNE,27,11.0,16.0,100,0.00,,,0.21,0.000000,,2013-06-08 05:02:00,
2013-06-08 01:32:00,58.0,58.0,-100.00,NNE,15,9.0,16.0,100,0.00,,,0.20,0.000000,,2013-06-08 05:32:00,
2013-06-08 01:42:00,58.0,58.0,-100.00,NNE,15,9.0,16.0,100,0.00,,,0.20,0.000000,,2013-06-08 05:42:00,
2013-06-08 01:53:00,58.0,58.0,-100.00,NNE,15,9.0,16.0,100,0.00,,,0.20,0.000000,,2013-06-08 05:53:00,
2013-06-08 02:02:00,58.0,58.0,-100.00,NNE,15,9.0,16.0,100,0.00,,,0.20,0.000000,,2013-06-08 06:02:00,
2013-06-08 02:32:00,58.0,58.0,-100.00,NNE,31,8.0,12.0,100,0.00,,,0.19,0.000000,,2013-06-08 06:32:00,
2013-06-08 02:42:00,58.0,58.0,-100.00,NNE,31,8.0,12.0,100,0.00,,,0.19,0.000000,,2013-06-08 06:42:00,
2013-06-08 02:53:00,58.0,58.0,-100.00,NNE,31,8.0,12.0,100,0.00,,,0.19,0.000000,,2013-06-08 06:53:00,
2013-06-08 03:02:00,58.0,58.0,-100.00,NNE,31,8.0,12.0,100,0.00,,,0.19,0.000000,,2013-06-08 07:02:00,
2013-06-08 03:32:00,59.0,59.0,-100.00,NNE,26,8.0,16.0,100,0.00,,,0.18,0.000000,,2013-06-08 07:32:00,
2013-06-08 03:42:00,59.0,59.0,-100.00,NNE,26,8.0,16.0,100,0.00,,,0.18,0.000000,,2013-06-08 07:42:00,
2013-06-08 03:52:00,59.0,59.0,-100.00,NNE,26,8.0,16.0,100,0.00,,,0.18,0.000000,,2013-06-08 07:52:00,
2013-06-08 04:02:00,59.0,59.0,-100.00,NNE,26,8.0,16.0,100,0.00,,,0.18,0.000000,,2013-06-08 08:02:00,
2013-06-08 04:32:00,58.0,58.0,-100.00,NNE,32,4.0,14.0,100,0.00,,,0.17,0.000000,,2013-06-08 08:32:00,
2013-06-08 04:42:00,58.0,58.0,-100.00,NNE,32,4.0,14.0,100,0.00,,,0.17,0.000000,,2013-06-08 08:42:00,
2013-06-08 04:53:00,58.0,58.0,-100.00,NNE,32,4.0,14.0,100,0.00,,,0.17,0.000000,,2013-06-08 08:53:00,
2013-06-08 05:02:00,58.0,58.0,-100.00,NNE,32,4.0,14.0,100,0.00,,,0.17,0.000000,,2013-06-08 09:02:00,
2013-06-08 05:33:00,59.0,59.0,-100.00,NE,36,1.0,9.0,100,0.00,,,0.16,0.000000,,2013-06-08 09:33:00,
2013-06-08 05:43:00,59.0,59.0,-100.00,NE,36,1.0,9.0,100,0.00,,,0.16,0.000000,,2013-06-08 09:43:00,
2013-06-08 05:53:00,59.0,59.0,-100.00,NE,36,1.0,9.0,100,0.00,,,0.16,0.000000,,2013-06-08 09:53:00,
2013-06-08 06:03:00,59.0,59.0,-100.00,NE,36,1.0,9.0,100,0.00,,,0.16,0.000000,,2013-06-08 10:03:00,
2013-06-08 06:33:00,59.0,59.0,-100.00,SSW,198,0.0,3.0,100,0.00,,,0.16,2.000000,,2013-06-08 10:33:00,
2013-06-08 06:43:00,59.0,59.0,-100.00,SSW,198,0.0,3.0,100,0.00,,,0.16,2.000000,,2013-06-08 10:43:00,
2013-06-08 06:53:00,59.0,59.0,-100.00,SSW,198,0.0,3.0,100,0.00,,,0.16,2.000000,,2013-06-08 10:53:00,
2013-06-08 07:03:00,59.0,59.0,-100.00,SSW,198,0.0,3.0,100,0.00,,,0.16,2.000000,,2013-06-08 11:03:00,
2013-06-08 07:32:00,59.0,59.0,-100.00,NE,43,1.0,6.0,100,0.00,,,0.16,12.000000,,2013-06-08 11:32:00,
2013-06-08 07:42:00,59.0,59.0,-100.00,NE,43,1.0,6.0,100,0.00,,,0.16,12.000000,,2013-06-08 11:42:00,
2013-06-08 07:52:00,59.0,59.0,-100.00,NE,43,1.0,6.0,100,0.00,,,0.16,12.000000,,2013-06-08 11:52:00,
2013-06-08 08:02:00,59.0,59.0,-100.00,NE,43,1.0,6.0,100,0.00,,,0.16,12.000000,,2013-06-08 12:02:00,
2013-06-08 08:33:00,59.0,59.0,-100.00,NE,53,1.0,7.0,100,0.00,,,0.16,22.000000,,2013-06-08 12:33:00,
2013-06-08 08:42:00,59.0,59.0,-100.00,NE,53,1.0,7.0,100,0.00,,,0.16,22.000000,,2013-06-08 12:42:00,
2013-06-08 08:52:00,59.0,59.0,-100.00,NE,53,1.0,7.0,100,0.00,,,0.16,22.000000,,2013-06-08 12:52:00,
2013-06-08 09:02:00,59.0,59.0,-100.00,NE,53,1.0,7.0,100,0.00,,,0.16,22.000000,,2013-06-08 13:02:00,
2013-06-08 09:32:00,58.0,58.0,-100.00,NE,45,1.0,9.0,100,0.00,,,0.16,58.000000,,2013-06-08 13:32:00,
2013-06-08 09:42:00,58.0,58.0,-100.00,NE,45,1.0,9.0,100,0.00,,,0.16,58.000000,,2013-06-08 13:42:00,
2013-06-08 09:53:00,58.0,58.0,-100.00,NE,45,1.0,9.0,100,0.00,,,0.16,58.000000,,2013-06-08 13:53:00,
2013-06-08 10:02:00,58.0,58.0,-100.00,NE,45,1.0,9.0,100,0.00,,,0.16,58.000000,,2013-06-08 14:02:00,
2013-06-08 10:32:00,60.0,60.0,-100.00,ENE,61,0.0,5.0,100,0.00,,,0.16,163.000000,,2013-06-08 14:32:00,
2013-06-08 10:42:00,60.0,60.0,-100.00,ENE,61,0.0,5.0,100,0.00,,,0.16,163.000000,,2013-06-08 14:42:00,
2013-06-08 10:52:00,60.0,60.0,-100.00,ENE,61,0.0,5.0,100,0.00,,,0.16,163.000000,,2013-06-08 14:52:00,
2013-06-08 11:02:00,60.0,60.0,-100.00,ENE,61,0.0,5.0,100,0.00,,,0.16,163.000000,,2013-06-08 15:02:00,
2013-06-08 11:33:00,61.0,61.0,-100.00,NE,45,2.0,7.0,100,0.00,,,0.16,190.000000,,2013-06-08 15:33:00,
2013-06-08 11:43:00,61.0,61.0,-100.00,NE,45,2.0,7.0,100,0.00,,,0.16,190.000000,,2013-06-08 15:43:00,
2013-06-08 11:53:00,61.0,61.0,-100.00,NE,45,2.0,7.0,100,0.00,,,0.16,190.000000,,2013-06-08 15:53:00,
2013-06-08 12:03:00,61.0,61.0,-100.00,NE,45,2.0,7.0,100,0.00,,,0.16,190.000000,,2013-06-08 16:03:00,
2013-06-08 12:33:00,62.0,62.0,-100.00,NE,56,2.0,6.0,100,0.00,,,0.15,208.000000,,2013-06-08 16:33:00,
2013-06-08 12:42:00,62.0,62.0,-100.00,NE,56,2.0,6.0,100,0.00,,,0.15,208.000000,,2013-06-08 16:42:00,
2013-06-08 12:53:00,62.0,62.0,-100.00,NE,56,2.0,6.0,100,0.00,,,0.15,208.000000,,2013-06-08 16:53:00,
2013-06-08 13:02:00,62.0,62.0,-100.00,NE,56,2.0,6.0,100,0.00,,,0.15,208.000000,,2013-06-08 17:02:00,
2013-06-08 13:32:00,62.0,62.0,-100.00,ENE,60,1.0,6.0,100,0.00,,,0.12,191.000000,,2013-06-08 17:32:00,
2013-06-08 13:42:00,62.0,62.0,-100.00,ENE,60,1.0,6.0,100,0.00,,,0.12,191.000000,,2013-06-08 17:42:00,
2013-06-08 13:52:00,62.0,62.0,-100.00,ENE,60,1.0,6.0,100,0.00,,,0.12,191.000000,,2013-06-08 17:52:00,
2013-06-08 14:02:00,62.0,62.0,-100.00,ENE,60,1.0,6.0,100,0.00,,,0.12,191.000000,,2013-06-08 18:02:00,
2013-06-08 14:32:00,65.0,65.0,-100.00,ENE,76,2.0,6.0,100,0.00,,,0.10,287.000000,,2013-06-08 18:32:00,
2013-06-08 14:42:00,65.0,65.0,-100.00,ENE,76,2.0,6.0,100,0.00,,,0.10,287.000000,,2013-06-08 18:42:00,
2013-06-08 14:52:00,65.0,65.0,-100.00,ENE,76,2.0,6.0,100,0.00,,,0.10,287.000000,,2013-06-08 18:52:00,
2013-06-08 15:03:00,65.0,65.0,-100.00,ENE,76,2.0,6.0,100,0.00,,,0.10,287.000000,,2013-06-08 19:03:00,
2013-06-08 15:32:00,67.0,66.0,-100.00,NNE,32,3.0,9.0,98,0.01,,,0.07,378.000000,,2013-06-08 19:32:00,
2013-06-08 15:42:00,67.0,66.0,-100.00,NNE,32,3.0,9.0,98,0.01,,,0.07,378.000000,,2013-06-08 19:42:00,
2013-06-08 15:53:00,67.0,66.0,-100.00,NNE,32,3.0,9.0,98,0.01,,,0.07,378.000000,,2013-06-08 19:53:00,
2013-06-08 16:02:00,67.0,66.0,-100.00,NNE,32,3.0,9.0,98,0.01,,,0.07,378.000000,,2013-06-08 20:02:00,
2013-06-08 16:32:00,68.0,65.0,-100.00,ENE,58,4.0,7.0,91,0.00,,,0.03,482.000000,,2013-06-08 20:32:00,
2013-06-08 16:42:00,68.0,65.0,-100.00,ENE,58,4.0,7.0,91,0.00,,,0.03,482.000000,,2013-06-08 20:42:00,
2013-06-08 16:53:00,68.0,65.0,-100.00,ENE,58,4.0,7.0,91,0.00,,,0.03,482.000000,,2013-06-08 20:53:00,
2013-06-08 17:02:00,68.0,65.0,-100.00,ENE,58,4.0,7.0,91,0.00,,,0.03,482.000000,,2013-06-08 21:02:00,
2013-06-08 17:33:00,68.0,62.0,-100.00,NE,43,3.0,9.0,82,0.00,,,0.03,435.000000,,2013-06-08 21:33:00,
2013-06-08 17:43:00,68.0,62.0,-100.00,NE,43,3.0,9.0,82,0.00,,,0.03,435.000000,,2013-06-08 21:43:00,
2013-06-08 17:53:00,68.0,62.0,-100.00,NE,43,3.0,9.0,82,0.00,,,0.03,435.000000,,2013-06-08 21:53:00,
2013-06-08 18:02:00,68.0,62.0,-100.00,NE,43,3.0,9.0,82,0.00,,,0.03,435.000000,,2013-06-08 22:02:00,
2013-06-08 18:33:00,68.0,65.0,-100.00,ENE,66,1.0,7.0,89,0.00,,,0.03,249.000000,,2013-06-08 22:33:00,
2013-06-08 18:43:00,68.0,65.0,-100.00,ENE,66,1.0,7.0,89,0.00,,,0.03,249.000000,,2013-06-08 22:43:00,
2013-06-08 18:53:00,68.0,65.0,-100.00,ENE,66,1.0,7.0,89,0.00,,,0.03,249.000000,,2013-06-08 22:53:00,
2013-06-08 19:02:00,68.0,65.0,-100.00,ENE,66,1.0,7.0,89,0.00,,,0.03,249.000000,,2013-06-08 23:02:00,
2013-06-08 19:32:00,67.0,62.0,-100.00,ESE,103,1.0,7.0,83,0.00,,,0.02,224.000000,,2013-06-08 23:32:00,
2013-06-08 19:42:00,67.0,62.0,-100.00,ESE,103,1.0,7.0,83,0.00,,,0.02,224.000000,,2013-06-08 23:42:00,
2013-06-08 19:52:00,67.0,62.0,-100.00,ESE,103,1.0,7.0,83,0.00,,,0.02,224.000000,,2013-06-08 23:52:00,
2013-06-08 20:02:00,67.0,62.0,-100.00,ESE,103,1.0,7.0,83,0.00,,,0.02,224.000000,,2013-06-09 00:02:00,
2013-06-08 20:32:00,61.0,61.0,-100.00,SSE,167,0.0,4.0,100,0.00,,,0.01,34.000000,,2013-06-09 00:32:00,
2013-06-08 20:42:00,61.0,61.0,-100.00,SSE,167,0.0,4.0,100,0.00,,,0.01,34.000000,,2013-06-09 00:42:00,
2013-06-08 20:52:00,61.0,61.0,-100.00,SSE,167,0.0,4.0,100,0.00,,,0.01,34.000000,,2013-06-09 00:52:00,
2013-06-08 21:02:00,61.0,61.0,-100.00,SSE,167,0.0,4.0,100,0.00,,,0.01,34.000000,,2013-06-09 01:02:00,
2013-06-08 21:32:00,56.0,56.0,-100.00,SSE,163,0.0,0.0,100,0.00,,,0.01,6.000000,,2013-06-09 01:32:00,
2013-06-08 21:42:00,56.0,56.0,-100.00,SSE,163,0.0,0.0,100,0.00,,,0.01,6.000000,,2013-06-09 01:42:00,
2013-06-08 21:52:00,56.0,56.0,-100.00,SSE,163,0.0,0.0,100,0.00,,,0.01,6.000000,,2013-06-09 01:52:00,
2013-06-08 22:02:00,56.0,56.0,-100.00,SSE,163,0.0,0.0,100,0.00,,,0.01,6.000000,,2013-06-09 02:02:00,
2013-06-08 22:32:00,55.0,55.0,-100.00,NE,42,0.0,0.0,100,0.00,,,0.01,0.000000,,2013-06-09 02:32:00,
2013-06-08 22:42:00,55.0,55.0,-100.00,NE,42,0.0,0.0,100,0.00,,,0.01,0.000000,,2013-06-09 02:42:00,
2013-06-08 22:52:00,55.0,55.0,-100.00,NE,42,0.0,0.0,100,0.00,,,0.01,0.000000,,2013-06-09 02:52:00,
2013-06-08 23:02:00,55.0,55.0,-100.00,NE,42,0.0,0.0,100,0.00,,,0.01,0.000000,,2013-06-09 03:02:00,
2013-06-08 23:33:00,54.0,54.0,-100.00,NNE,28,0.0,3.0,100,0.00,,,0.01,0.000000,,2013-06-09 03:33:00,
2013-06-08 23:43:00,54.0,54.0,-100.00,NNE,28,0.0,3.0,100,0.00,,,0.01,0.000000,,2013-06-09 03:43:00,
2013-06-08 23:54:00,54.0,54.0,-100.00,NNE,28,0.0,3.0,100,0.00,,,0.01,0.000000,,2013-06-09 03:54:00,